,

(GMT )
Tracadie

Weather History for CXTD - December, 2012

Change the Weather History Date:

Sunday, December 9, 2012

  Actual Average Record
Temperature  
Mean Temperature 43 °F -  
Max Temperature 53 °F - - ()
Min Temperature 33 °F - - ()
Degree Days  
Heating Degree Days 22    
Moisture  
Dew Point 39 °F    
Average Humidity 82    
Maximum Humidity 95    
Minimum Humidity 64    
Precipitation  
Precipitation 0.00 in - - ()
Sea Level Pressure  
Sea Level Pressure 29.96 in    
Wind  
Wind Speed 10 mph ()    
Max Wind Speed 20 mph    
Max Gust Speed 31 mph    
T = Trace of Precipitation, MM = Missing Value Source: Averaged Metar Reports

Daily Weather History Graph

Daily Weather History Graph

Search for Another Location

Airport or City:

Trip Planner

Search our weather history database for the weather conditions in past years. The results will help you decide how hot, cold, wet, or windy it might be!

Date:

Astronomy

Dec. 09, 2012 Rise Set
Actual Time 7:35 AM AST 4:22 PM AST
Civil Twilight 7:01 AM AST 4:56 PM AST
Nautical Twilight 6:24 AM AST 5:34 PM AST
Astronomical Twilight 5:48 AM AST 6:10 PM AST
Moon 2:53 AM AST (12/9) 1:35 PM AST (12/9)
Length of Visible Light 9h 55m
Length of Day
8h 47m
Waning Crescent, 19% of the Moon is Illuminated
Dec 9
Waning Crescent
Dec 13
New
Dec 20
First Quarter
Dec 28
Full
Jan 4
Last Quarter

Hourly Weather History & Observations

Time (AST) Temp. Windchill Dew Point Humidity Pressure Visibility Wind Dir Wind Speed Gust Speed Precip Events Conditions
12:00 AM 47.3 °F - 46.0 °F 95% 29.86 in - SE 11.5 mph - 0.03 in   Unknown
1:00 AM 50.4 °F - 49.1 °F 95% 29.83 in - South 10.4 mph - N/A   Unknown
2:00 AM 53 °F - 51 °F 92% 29.82 in - South 10.4 mph - -  
2:00 AM 53.1 °F - 51.4 °F 94% 29.82 in - South 10.4 mph 18.4 mph N/A   Unknown
3:00 AM 53.8 °F - 51.8 °F 93% 29.81 in - South 12.7 mph - N/A   Unknown
4:00 AM 53.4 °F - 51.4 °F 93% 29.79 in - South 11.5 mph 18.4 mph N/A   Unknown
5:00 AM 53.2 °F - 51.4 °F 94% 29.78 in - South 9.2 mph - N/A   Unknown
6:00 AM 52.3 °F - 50.7 °F 94% 29.79 in - SW 11.5 mph - N/A   Unknown
7:00 AM 51.6 °F - 49.8 °F 94% 29.81 in - WSW 10.4 mph - N/A   Unknown
8:00 AM 51 °F - 48 °F 87% 29.84 in - West 8.1 mph - -  
8:00 AM 50.5 °F - 48.4 °F 92% 29.84 in - West 8.1 mph - N/A   Unknown
9:00 AM 47.7 °F - 45.7 °F 93% 29.88 in - WNW 11.5 mph 19.6 mph N/A   Unknown
10:00 AM 46.0 °F 39.6 °F 43.5 °F 91% 29.91 in - WNW 15.0 mph 24.2 mph N/A   Unknown
11:00 AM 42.6 °F 35.6 °F 38.1 °F 84% 29.95 in - WNW 13.8 mph 21.9 mph N/A   Unknown
12:00 PM 41.0 °F 32.8 °F 35.2 °F 80% 29.96 in - West 16.1 mph 24.2 mph N/A   Unknown
1:00 PM 41.5 °F 32.9 °F 33.1 °F 72% 29.97 in - WNW 18.4 mph 31.1 mph N/A   Unknown
2:00 PM 40 °F - 32 °F 64% 30.00 in - WNW 16.1 mph - -  
2:00 PM 39.9 °F 31.4 °F 32.0 °F 73% 30.00 in - WNW 16.1 mph 24.2 mph N/A   Unknown
3:00 PM 38.5 °F 28.6 °F 29.8 °F 71% 30.04 in - WNW 19.6 mph 27.6 mph N/A   Unknown
4:00 PM 37.4 °F 28.9 °F 29.7 °F 74% 30.07 in - West 13.8 mph 20.7 mph N/A   Unknown
5:00 PM 36.7 °F 28.4 °F 28.8 °F 73% 30.10 in - WNW 12.7 mph 19.6 mph N/A   Unknown
6:00 PM 36.3 °F 28.0 °F 26.8 °F 68% 30.13 in - WNW 12.7 mph 19.6 mph N/A   Unknown
7:00 PM 35.2 °F 28.8 °F 27.0 °F 72% 30.16 in - West 8.1 mph - N/A   Unknown
8:00 PM 34 °F - 28 °F 69% 30.20 in - West 6.9 mph - -  
8:00 PM 33.6 °F 27.5 °F 27.5 °F 78% 30.20 in - West 6.9 mph - N/A   Unknown
9:00 PM 35.2 °F 27.6 °F 27.7 °F 74% 30.23 in - WNW 10.4 mph - N/A   Unknown
11:00 PM 33.3 °F 24.6 °F 22.3 °F 64% 30.25 in - West 11.5 mph 26.5 mph N/A   Unknown